Waarnemingen

Advertentie
Mijn weer
St-Girons, Frankrijk (7627): temperatuur & dauwpunt: 11.01.2019 01:00:00 - 17.01.2019 01:00:00 (CET)St-Girons, Frankrijk (7627): temperatuur 5cm: 11.01.2019 01:00:00 - 17.01.2019 01:00:00 (CET)St-Girons, Frankrijk (7627): temperatuur -20cm & temperatuur -100cm: 11.01.2019 01:00:00 - 17.01.2019 01:00:00 (CET)St-Girons, Frankrijk (7627): windsnelheid & windstoten: 11.01.2019 01:00:00 - 17.01.2019 01:00:00 (CET)St-Girons, Frankrijk (7627): windrichting: 11.01.2019 01:00:00 - 17.01.2019 01:00:00 (CET)St-Girons, Frankrijk (7627): luchtdruk: 11.01.2019 01:00:00 - 17.01.2019 01:00:00 (CET)St-Girons, Frankrijk (7627): zicht: 11.01.2019 01:00:00 - 17.01.2019 01:00:00 (CET)St-Girons, Frankrijk (7627): Zonneschijnduur: 11.01.2019 01:00:00 - 17.01.2019 01:00:00 (CET)St-Girons, Frankrijk (7627): neerslag: 11.01.2019 01:00:00 - 17.01.2019 01:00:00 (CET)
Datum & Tijd tt [°C] td [°C] tt 5cm [°C] tt -20cm [°C] tt -100cm [°C] ff [km/u] ff [kn] fx [km/u] fx [kn] dd ppp [hPa] vv [km] sd [min] rr [mm]
17.01.2019 01:00:00 5,2 0,8 3,8 7,2 9,4 11 6 17 9 ZZO 1018,4 20 0 0,0
17.01.2019 00:00:00 4,6 0,7 0,0 7,2 9,4 13 7 22 12 ZZO 1018,9 20 0 0,0
16.01.2019 23:00:00 1,8 -0,5 -2,5 7,2 9,4 2 1 5 3 ZO 1020,0 20 0 0,0
16.01.2019 22:00:00 1,1 -1,3 -2,7 7,2 9,4 0 0 5 3 N 1019,8 20 0 0,0
16.01.2019 21:00:00 2,6 0,3 -1,7 7,2 9,4 0 0 5 3 N 1019,2 20 0 0,0
16.01.2019 20:00:00 4,7 0,8 -0,9 7,2 9,4 0 0 5 3 N 1018,4 20 0 0,0
16.01.2019 19:00:00 3,9 -0,5 0,0 7,2 9,4 5 3 10 5 W 1018,0 20 0 0,0
16.01.2019 18:00:00 7,0 0,2 1,8 7,1 9,4 6 3 16 8 W 1016,9 20 0 0,0
16.01.2019 17:00:00 10,3 -0,2 8,4 7,1 9,4 8 4 18 10 N 1016,0 20 39 0,0
16.01.2019 16:00:00 13,2 0,6 15,8 7,0 9,3 8 4 17 9 N 1015,1 20 60 0,0
16.01.2019 15:00:00 14,1 0,0 17,8 7,0 9,4 10 5 18 10 NW 1014,7 20 60 0,0
16.01.2019 14:00:00 14,0 0,2 18,0 7,0 9,4 13 7 19 11 NW 1014,9 20 60 0,0
16.01.2019 13:00:00 13,5 -2,1 18,2 7,0 9,3 0 0 6 3 N 1015,2 20 60 0,0
16.01.2019 12:00:00 11,3 -1,2 14,0 7,1 9,4 3 2 9 5 ZZO 1016,1 20 60 0,0
16.01.2019 11:00:00 6,2 -0,5 5,5 7,2 9,3 2 1 5 3 ONO 1017,6 20 60 0,0
16.01.2019 10:00:00 1,5 -2,5 -4,6 7,3 9,4 0 0 7 4 N 1018,3 20 58 0,0
16.01.2019 09:00:00 -3,2 -5,2 -7,1 7,4 9,4 4 2 6 3 WNW 1018,7 20 0 0,0
16.01.2019 08:00:00 -3,1 -4,8 -7,4 7,5 9,3 2 1 7 4 W 1018,4 20 0 0,0
16.01.2019 07:00:00 -1,9 -3,8 -6,8 7,5 9,3 0 0 5 3 N 1018,4 20 0 0,0
16.01.2019 06:00:00 -2,3 -3,1 -7,1 7,6 9,3 0 0 4 2 N 1018,6 20 0 0,0
16.01.2019 05:00:00 -3,4 -4,8 -6,9 7,7 9,3 2 1 6 3 ZW 1019,2 20 0 0,0
16.01.2019 04:00:00 -2,6 -3,7 -6,5 7,7 9,3 0 0 3 1 N 1019,7 20 0 0,0
16.01.2019 03:00:00 -2,1 -3,4 -5,8 7,7 9,3 0 0 4 2 N 1019,8 20 0 0,0
16.01.2019 02:00:00 -2,6 -4,6 -5,7 7,8 9,3 2 1 12 6 WNW 1019,8 20 0 0,0
16.01.2019 01:00:00 -0,2 -3,7 -4,1 7,9 9,3 2 1 17 9 Z 1020,0 20 0 0,0
16.01.2019 00:00:00 1,5 -3,2 -2,8 7,9 9,4 10 5 18 10 ZZO 1020,0 20 0 0,0
15.01.2019 23:00:00 2,6 -3,1 -0,4 7,9 9,3 10 5 20 11 ZZO 1020,2 20 0 0,0
15.01.2019 22:00:00 3,6 -1,2 1,0 7,9 9,3 11 6 29 15 ZO 1020,5 20 0 0,0
15.01.2019 21:00:00 4,1 -0,5 2,6 7,9 9,3 12 6 31 17 ZO 1020,5 20 0 0,0
15.01.2019 20:00:00 4,6 -0,6 -0,1 7,9 9,3 16 8 23 12 ZO 1020,8 20 0 0,0
15.01.2019 19:00:00 3,0 0,9 -0,8 7,9 9,3 9 5 14 7 ZZO 1021,5 18 0 0,0
15.01.2019 18:00:00 5,0 2,0 1,1 7,8 9,3 3 1 6 3 NW 1021,3 20 0 0,0
15.01.2019 17:00:00 10,1 3,4 12,3 7,8 9,3 4 2 7 4 N 1020,5 20 60 0,0
15.01.2019 16:00:00 11,2 3,5 16,3 7,7 9,3 2 1 9 5 N 1020,5 20 60 0,0
15.01.2019 15:00:00 10,7 3,5 16,4 7,7 9,2 3 2 10 5 ONO 1021,0 20 60 0,0
15.01.2019 14:00:00 10,3 3,1 16,0 7,7 9,3 3 1 9 5 WNW 1021,7 20 60 0,0
15.01.2019 13:00:00 9,9 2,5 14,7 7,7 9,3 2 1 14 8 O 1023,0 20 60 0,0
15.01.2019 12:00:00 8,1 1,9 11,8 7,7 9,3 8 4 14 8 O 1024,5 20 60 0,0
15.01.2019 11:00:00 7,5 2,8 5,0 7,7 9,3 8 4 15 8 ZZO 1025,4 20 35 0,0
15.01.2019 10:00:00 4,1 1,6 3,2 7,8 9,3 3 1 11 6 ZZO 1026,3 20 0 0,0
15.01.2019 09:00:00 3,2 0,8 1,3 7,8 9,3 10 5 15 8 ZZO 1026,2 20 0 0,0
15.01.2019 08:00:00 2,0 0,8 -1,2 7,8 9,3 9 5 11 6 ZZO 1026,3 20 0 0,0
15.01.2019 07:00:00 1,4 0,5 -1,2 7,8 9,2 5 3 6 4 ZZW 1026,4 0,7 0 0,0
15.01.2019 06:00:00 3,6 2,3 -0,2 7,8 9,3 0 0 5 3 N 1025,5 14 0 0,0
15.01.2019 05:00:00 5,0 2,7 4,5 7,8 9,2 3 2 8 4 OZO 1026,0 20 0 0,0
15.01.2019 04:00:00 5,1 3,4 4,5 7,8 9,3 2 1 9 5 Z 1026,7 15 0 0,0
15.01.2019 03:00:00 5,5 4,1 5,2 7,8 9,3 5 3 9 5 ZZO 1026,5 20 0 0,0
15.01.2019 02:00:00 5,9 4,5 5,7 7,8 9,3 0 0 9 5 N 1026,4 17 0 0,2
15.01.2019 01:00:00 7,1 5,9 6,8 7,8 9,3 7 4 10 5 WNW 1026,4 11 0 0,0
15.01.2019 00:00:00 7,3 5,9 6,9 7,8 9,3 8 4 11 6 W 1026,6 20 0 0,0
14.01.2019 23:00:00 7,3 5,8 5,4 7,7 9,2 3 1 12 6 WNW 1026,5 20 0 0,0
14.01.2019 22:00:00 7,4 6,0 5,2 7,7 9,2 9 5 12 7 NNW 1026,3 20 0 0,0
14.01.2019 21:00:00 8,3 4,9 6,2 7,7 9,2 3 2 17 9 NW 1026,1 20 0 0,0
14.01.2019 20:00:00 9,2 5,0 8,3 7,7 9,3 10 5 24 13 WNW 1025,7 20 0 0,0
14.01.2019 19:00:00 9,7 5,3 8,8 7,6 9,3 7 4 21 11 NW 1025,1 20 0 0,0
14.01.2019 18:00:00 10,3 5,3 9,3 7,5 9,2 13 7 27 14 NW 1024,7 20 0 0,0
14.01.2019 17:00:00 11,0 4,9 10,7 7,5 9,2 14 7 36 19 WNW 1024,3 20 12 0,0
14.01.2019 16:00:00 11,6 5,0 12,0 7,4 9,2 18 10 33 18 WNW 1024,0 20 32 0,0
14.01.2019 15:00:00 11,4 5,7 12,0 7,4 9,2 20 11 37 20 WNW 1024,0 20 8 0,0
14.01.2019 14:00:00 11,6 5,7 12,6 7,4 9,2 21 12 46 25 WNW 1024,2 20 49 0,0
14.01.2019 13:00:00 11,2 4,9 12,4 7,4 9,2 26 14 50 27 WNW 1024,6 20 43 0,0
14.01.2019 12:00:00 10,2 5,0 9,9 7,4 9,2 23 13 43 23 WNW 1025,4 20 8 0,0
14.01.2019 11:00:00 9,5 4,5 8,6 7,3 9,2 23 12 40 21 WNW 1026,0 20 0 0,0
14.01.2019 10:00:00 9,1 4,1 8,4 7,4 9,3 13 7 31 17 WNW 1025,5 20 0 0,0
14.01.2019 09:00:00 9,4 3,6 7,9 7,3 9,2 16 9 35 19 W 1024,8 20 0 0,0
14.01.2019 08:00:00 9,0 4,0 7,4 7,3 9,2 17 9 37 20 WNW 1024,9 20 0 0,0
14.01.2019 07:00:00 8,4 3,8 7,2 7,3 9,3 13 7 40 22 W 1024,9 20 0 0,0
14.01.2019 06:00:00 8,6 4,4 7,8 7,3 9,3 23 12 41 22 WNW 1025,0 20 0 0,0
14.01.2019 05:00:00 9,0 4,4 7,7 7,3 9,2 24 13 48 26 NW 1024,8 20 0 0,0
14.01.2019 04:00:00 9,2 4,4 7,9 7,3 9,2 27 15 46 25 WNW 1024,7 20 0 0,0
14.01.2019 03:00:00 9,2 4,4 8,0 7,3 9,2 22 12 45 24 WNW 1025,0 20 0 0,0
14.01.2019 02:00:00 9,1 3,9 8,0 7,3 9,2 21 11 43 23 WNW 1025,1 20 0 0,0
14.01.2019 01:00:00 9,3 3,5 4,3 7,2 9,3 17 9 29 16 WNW 1025,4 20 0 0,0
14.01.2019 00:00:00 7,8 4,0 5,5 7,2 9,2 10 5 27 15 NW 1026,5 20 0 0,0
13.01.2019 23:00:00 9,6 4,4 8,5 7,2 9,3 15 8 31 17 WNW 1026,6 20 0 0,0
13.01.2019 22:00:00 9,9 4,3 8,7 7,2 9,2 17 9 34 18 WNW 1026,8 20 0 0,0
13.01.2019 21:00:00 9,4 4,8 8,4 7,1 9,3 14 8 24 13 WNW 1026,9 20 0 0,0
13.01.2019 20:00:00 9,9 4,5 8,9 7,1 9,3 11 6 31 17 WNW 1026,5 20 0 0,0
13.01.2019 19:00:00 10,1 4,7 8,2 7,0 9,2 16 9 31 17 WNW 1026,7 20 0 0,0
13.01.2019 18:00:00 9,9 4,1 8,3 7,0 9,3 14 8 36 19 WNW 1026,7 20 8 0,0
13.01.2019 17:00:00 10,8 4,0 10,1 6,9 9,3 18 10 36 19 WNW 1026,7 20 4 0,0
13.01.2019 16:00:00 11,4 3,7 11,6 6,9 9,3 17 9 41 22 WNW 1026,6 20 0 0,0
13.01.2019 15:00:00 11,3 3,1 11,7 6,8 9,3 25 14 42 23 WNW 1027,0 20 0 0,0
13.01.2019 14:00:00 11,0 2,6 12,5 6,8 9,3 11 6 31 17 WNW 1027,7 20 1 0,0
13.01.2019 13:00:00 10,7 2,3 10,2 6,8 9,2 0 0 8 4 N 1028,2 20 0 0,0
13.01.2019 12:00:00 9,3 2,2 9,1 6,8 9,3 11 6 18 10 NW 1029,9 20 0 0,0
13.01.2019 11:00:00 8,5 2,5 8,0 6,8 9,3 2 1 6 3 O 1030,6 20 0 0,0
13.01.2019 10:00:00 6,6 1,5 5,2 6,8 9,3 4 2 8 4 O 1030,5 20 0 0,0
13.01.2019 09:00:00 5,5 0,8 4,2 6,8 9,3 3 2 6 3 ZZO 1030,9 20 0 0,0
13.01.2019 08:00:00 4,7 0,5 3,9 6,8 9,3 2 1 7 4 ZZO 1030,8 20 0 0,0
13.01.2019 07:00:00 4,5 0,3 3,9 6,8 9,3 0 0 7 4 N 1030,6 20 0 0,0
13.01.2019 06:00:00 4,9 -0,9 3,6 6,8 9,3 4 2 13 7 O 1030,9 20 0 0,0
13.01.2019 05:00:00 5,1 -1,4 4,0 6,8 9,3 6 3 15 8 ZO 1031,8 20 0 0,0
13.01.2019 04:00:00 5,8 -0,5 4,3 6,8 9,3 3 2 20 11 W 1032,2 20 0 0,0
13.01.2019 03:00:00 6,4 -0,4 4,7 6,7 9,2 7 4 19 10 NNW 1032,2 20 0 0,0
13.01.2019 02:00:00 7,1 -1,1 5,9 6,8 9,4 5 3 26 14 W 1031,5 20 0 0,0
13.01.2019 01:00:00 7,2 -0,8 4,6 6,7 9,3 16 9 32 18 WZW 1032,0 20 0 0,0
13.01.2019 00:00:00 5,6 1,1 4,0 6,7 9,3 6 4 12 7 Z 1033,0 20 0 0,0
12.01.2019 23:00:00 5,4 1,5 4,4 6,7 9,3 3 2 11 6 W 1033,5 20 0 0,0
12.01.2019 22:00:00 5,6 1,9 4,7 6,7 9,3 6 3 16 9 NW 1033,2 20 0 0,0
12.01.2019 21:00:00 5,7 1,6 4,6 6,6 9,3 5 3 11 6 WNW 1033,3 20 0 0,0
12.01.2019 20:00:00 5,8 1,7 5,1 6,6 9,3 6 3 18 10 WNW 1033,2 20 0 0,0
12.01.2019 19:00:00 6,0 2,1 5,1 6,5 9,3 11 6 18 10 NW 1032,8 20 0 0,0
12.01.2019 18:00:00 6,3 1,8 5,5 6,5 9,3 7 4 23 12 WNW 1032,3 20 0 0,0
12.01.2019 17:00:00 6,8 1,5 6,6 6,5 9,4 10 6 24 13 NW 1031,6 20 0 0,0
12.01.2019 16:00:00 7,7 2,0 8,2 6,4 9,4 12 7 27 15 NNW 1031,4 20 1 0,0
12.01.2019 15:00:00 7,8 0,7 9,0 6,4 9,4 13 7 21 11 NNW 1031,3 20 24 0,0
12.01.2019 14:00:00 7,6 1,0 10,2 6,3 9,4 7 4 14 8 W 1031,7 20 26 0,0
12.01.2019 13:00:00 7,8 0,5 11,1 6,3 9,4 8 4 16 9 N 1032,3 20 58 0,0
12.01.2019 12:00:00 7,4 -0,1 7,3 6,3 9,4 5 3 11 6 N 1033,0 20 57 0,0
12.01.2019 11:00:00 4,3 -0,5 4,0 6,3 9,4 2 1 4 2 W 1033,8 20 0 0,0
12.01.2019 10:00:00 2,4 -1,8 1,5 6,3 9,4 0 0 5 3 N 1034,2 20 0 0,0
12.01.2019 09:00:00 1,1 -2,1 0,7 6,4 9,4 0 0 5 3 N 1034,2 20 0 0,0
12.01.2019 08:00:00 1,2 -2,0 -1,0 6,4 9,4 3 2 5 3 ONO 1034,0 20 0 0,0
12.01.2019 07:00:00 0,6 -3,0 -1,8 6,4 9,4 0 0 4 2 N 1034,3 20 0 0,0
12.01.2019 06:00:00 1,3 -2,8 0,2 6,4 9,4 2 1 7 4 NNW 1034,2 20 0 0,0
12.01.2019 05:00:00 1,3 -2,3 0,3 6,4 9,4 6 3 12 7 ZW 1034,4 20 0 0,0
12.01.2019 04:00:00 2,1 -3,2 1,4 6,4 9,4 10 6 16 9 Z 1034,0 20 0 0,0
12.01.2019 03:00:00 2,1 -2,6 1,5 6,4 9,4 11 6 17 9 Z 1034,5 20 0 0,0
12.01.2019 02:00:00 2,3 -3,2 1,2 6,4 9,4 8 5 14 8 Z 1034,5 20 0 0,0
12.01.2019 01:00:00 1,8 -3,1 0,7 6,4 9,4 6 3 10 5 Z 1034,9 20 0 0,0
12.01.2019 00:00:00 1,2 -1,9 0,6 6,4 9,4 3 2 6 3 ZZO 1034,9 18 0 0,0
11.01.2019 23:00:00 1,4 -2,7 0,5 6,4 9,4 4 2 6 4 WNW 1034,5 20 0 0,0
11.01.2019 22:00:00 1,3 -2,3 0,6 6,4 9,4 3 2 7 4 ZZO 1034,5 20 0 0,0
11.01.2019 21:00:00 1,7 -3,0 0,4 6,4 9,4 3 2 12 7 WZW 1034,2 20 0 0,0
11.01.2019 20:00:00 2,0 -3,9 1,0 6,4 9,4 4 2 8 4 NW 1033,7 20 0 0,0
11.01.2019 19:00:00 2,8 -5,8 1,4 6,4 9,4 0 0 14 7 N 1033,1 20 0 0,0
11.01.2019 18:00:00 3,4 -5,8 2,4 6,4 9,4 9 5 23 13 W 1032,8 20 0 0,0
11.01.2019 17:00:00 3,4 -5,0 3,0 6,3 9,4 16 8 27 15 WNW 1032,3 20 0 0,0
11.01.2019 16:00:00 3,6 -4,9 4,1 6,3 9,4 18 10 29 16 WNW 1032,0 20 0 0,0
11.01.2019 15:00:00 3,6 -5,4 4,6 6,3 9,4 14 8 37 20 WNW 1031,5 20 6 0,0
11.01.2019 14:00:00 3,5 -4,5 5,2 6,3 9,4 21 11 35 19 NW 1031,4 20 44 0,0
11.01.2019 13:00:00 3,6 -3,5 7,6 6,3 9,4 19 10 31 17 NW 1031,5 20 60 0,0
11.01.2019 12:00:00 2,5 -3,4 5,5 6,4 9,5 13 7 21 12 WNW 1032,3 20 60 0,0
11.01.2019 11:00:00 1,0 -3,9 0,7 6,4 9,4 13 7 21 11 WNW 1032,8 20 11 0,0
11.01.2019 10:00:00 0,1 -4,4 -0,5 6,4 9,5 12 6 24 13 WNW 1032,0 20 0 0,0
11.01.2019 09:00:00 -0,2 -4,1 -0,8 6,4 9,4 14 7 21 12 WNW 1031,3 20 0 0,0
11.01.2019 08:00:00 -0,2 -3,9 -0,6 6,4 9,4 14 7 23 12 NW 1030,7 20 0 0,0
11.01.2019 07:00:00 -0,2 -3,2 -0,5 6,4 9,4 7 4 15 8 NNW 1030,5 19 0 0,0
11.01.2019 06:00:00 -0,1 -3,3 -0,3 6,5 9,5 9 5 17 9 NW 1029,9 20 0 0,0
11.01.2019 05:00:00 0,1 -3,3 -0,2 6,5 9,4 10 5 16 9 NW 1029,8 20 0 0,0
11.01.2019 04:00:00 0,3 -3,3 -0,1 6,5 9,4 10 5 18 10 WNW 1029,6 20 0 0,0
11.01.2019 03:00:00 0,3 -3,4 -0,2 6,5 9,5 9 5 17 9 NW 1029,6 20 0 0,0
11.01.2019 02:00:00 0,5 -3,6 0,1 6,6 9,5 11 6 20 11 WNW 1029,2 20 0 0,0
11.01.2019 01:00:00 0,6 -3,9 -0,1 6,6 9,5 13 7 22 12 WNW 1028,9 20 0 0,0

tt = temperatuur
td = dauwpunt
tt 5cm = temperatuur 5cm
tt -20cm = temperatuur -20cm
tt -100cm = temperatuur -100cm
ff = windsnelheid
fx = windstoten
dd = windrichting
ppp = luchtdruk
vv = zicht
sd = Zonneschijnduur
rr = neerslag

Weerstations in de omgeving